Weather in Veshalovka

Russia / Lipetsk Oblast     52°45′22″N   39°17′06″E
temp.,
°C
wind,
m/s
gust,
m/s
humid.,
%
clouds,
%
prec.,
mm/h
press.,
hPa
HPBL,
m
7 may, fri
fri700:00+10nw4693100 0.9 1010369
03:00+7nw5794100 4.9 1011458
06:00+7n3790100 6.2 1011443
09:00+8wnw1282100 6.3 1013651
12:00+12nw34565 0.2 10141546
15:00+14wnw34404 0.2 10142185
18:00+14wsw225151 0.0 10141482
21:00+10sse225723 0.0 101512
8 may, sat
sat800:00+8sse49665 0.0 1015155
03:00+8sse61478100 0.0 1015354
06:00+8sse71677100 0.0 1013483
09:00+11sse81674100 0.1 1011832
12:00+13s91572100 0.1 10081037
15:00+12s71489100 2.6 1007896
18:00+12s81495100 2.1 1006886
21:00+11sw61193100 2.4 1006554
9 may, sun
sun900:00+8wsw61091100 0.0 1007505
03:00+6sw81180100 0.0 1008844
06:00+5wsw61090100 0.0 1009844
09:00+5wnw7991100 0.0 1011737
12:00+4nw71195100 0.1 1013757
15:00+5nw71292100 0.1 1016933
18:00+7n6138295 0.1 10181301
21:00+5nnw4118397 0.1 1020352
10 may, mon
mon1000:00+5nnw514835 0.0 1021483
03:00+5n61682100 0.0 1023638
06:00+5n81779100 0.0 1024770
09:00+9nne10166936 0.0 1023993
12:00+11nne101364100 0.0 10241189
15:00+12nne8147195 0.0 1023943
18:00+13ne7137396 0.0 1024880
21:00+11nne81781100 0.0 1024605
11 may, tue
tue1100:00+9ne81687100 0.0 1024471
03:00+8nne7159139 0.0 1024402
06:00+8ne8179071 0.0 1024449
09:00+13ene91478100 0.0 1024632
12:00+18ene796798 0.0 10241123
15:00+15se478682 0.8 1025415
18:00+14e24866 0.9 1025283
21:00+12nne11935 0.9 102511